Location: Orangeville
(43.9200°N, 80.0943°W)
Time: 12:35:04
(UTC-05:00)

Tiangong - Pass Details

Date: 14 December 2021
Orbit: 383 x 386 km, 41.5° (Epoch: 19 January)

Event Time Altitude Azimuth Distance (km) Brightness Sun altitude
Rises 18:50:40 0° 269° (W) 2,277 6.4 -22.1°
Reaches altitude 10° 18:52:47 10° 264° (W) 1,419 5.1 -22.4°
Enters shadow 18:55:12 39° 230° (SW) 594 2.4 -22.9°
